Find Starlink 36948

NORAD ID: 68209 Int'l Des: 2026-053 Owner: SPXS Country: US Constellation: starlink operational
LEOCIRCULARRETROGRADE

当前视图

正在加载3D地球...

About Starlink 36948

Starlink 36948 (NORAD 68209) is a starlink constellation satellite (v2 mini) launched Mar 17, 2026 by SPXS of US. It operates in LEO, CIRCULAR, RETROGRADE orbit with a mass of 575.00 kg.

关于 Starlink 36948

正在加载描述...

即将过境

Passes for default location (London). Set your location on the main map for personalized predictions.

高度历史

Loading altitude history...

两行轨道根数

1 68209U 26053C 26167.21339355 .00011580 00000-0 36036-3 0 9990
2 68209 97.2854 42.2954 0001919 100.5609 259.5850 15.33452351 15292
Epoch: Jun 16, 2026 • Age: 7 hours

当前状态

高度 488.4 km
速度 7.62 km/s
星下点 -56.54°S, 120.47°E
发射日期 Mar 17, 2026
运行时间 0.2 years
类型 internet

技术详情

分类 Payload
质量 575.00 kg
干质量 530.00 kg
总质量 575.00 kg
长度 0.30 m
直径 4.10 m
跨度 29.00 m
形状 Box + pan
制造商 SPXS
平台类型 Starlink V2MO
阶段状态 In Orbit
所有者/国家 SPXS/US

Most Searched